KG5VSR Weather Reports


Display with metric or nautical units.
time (UTC)temp
F
wind
direction
speed
MPH
gust
MPH
rain 1hr
in
rain 24hr
in
rain mn
in
humidity
%
barometer
mb
20260831160755 93 183 5.0 6.0 0.00 0.00 0.00 53 1017.9
20260831153753 90 212 2.0 2.0 0.00 0.00 0.00 58 1017.9
20260831150753 89 266 1.0 1.0 0.00 0.00 0.00 64 1018.0
20260831143753 85 221 1.0 1.0 0.00 0.00 0.00 69 1017.8
20260831140752 84 153 2.0 2.0 0.00 0.00 0.00 72 1017.6
20260831133748 83 202 2.0 2.0 0.00 0.00 0.00 73 1017.4
20260831130747 82 200 1.0 1.0 0.00 0.00 0.00 74 1017.1
20260831123746 80 221 0.0 0.0 0.00 0.00 0.00 76 1016.4
20260831120744 79 248 0.0 0.0 0.00 0.00 0.00 79 1016.4
20260831113742 80 157 0.0 1.0 0.00 0.00 0.00 77 1015.9
20260831110742 80 149 2.0 3.0 0.00 0.00 0.00 75 1015.7
20260831103740 81 229 0.0 0.0 0.00 0.00 0.00 73 1015.9
20260831100741 81 216 0.0 0.0 0.00 0.00 0.00 72 1015.5
20260831093740 82 189 1.0 1.0 0.00 0.00 0.00 70 1015.7
20260831090740 83 207 0.0 0.0 0.00 0.00 0.00 67 1015.1
20260831083738 84 150 1.0 2.0 0.00 0.00 0.00 65 1015.2
20260831080737 84 213 1.0 2.0 0.00 0.00 0.00 62 1015.0
20260831073736 85 208 1.0 1.0 0.00 0.00 0.00 61 1015.0
20260831070732 82 233 0.0 0.0 0.00 0.00 0.00 65 1014.8
20260831063727 84 240 0.0 0.0 0.00 0.00 0.00 62 1014.9
20260831060724 85 226 0.0 0.0 0.00 0.00 0.00 61 1014.9
20260831053725 84 251 0.0 0.0 0.00 0.00 0.00 61 1014.9
20260831050720 85 260 0.0 0.0 0.00 0.00 0.00 59 1014.9
20260831043718 87 265 0.0 0.0 0.00 0.00 0.00 55 1014.8
20260831040715 89 236 0.0 0.0 0.00 0.00 0.00 53 1014.7
20260831033714 89 219 0.0 0.0 0.00 0.00 0.00 52 1014.5
20260831030709 89 260 0.0 0.0 0.00 0.00 0.00 52 1014.2
20260831023707 90 214 0.0 0.0 0.00 0.00 0.00 50 1013.9
20260831020705 91 250 0.0 0.0 0.00 0.00 0.00 49 1013.7
20260831013704 92 157 1.0 1.0 0.00 0.00 0.00 46 1013.2
20260831010702 94 213 1.0 2.0 0.00 0.00 0.00 44 1012.9
20260831003702 95 167 2.0 2.0 0.00 0.00 0.00 43 1013.0
20260831000703 97 233 1.0 1.0 0.00 0.00 0.00 43 1013.1
20260830233701 98 94 2.0 2.0 0.00 0.00 0.00 41 1013.1
20260830230701 99 155 3.0 3.0 0.00 0.00 0.00 40 1013.2
20260830223701 98 199 2.0 2.0 0.00 0.00 0.00 39 1013.2
20260830220656 102 152 7.0 9.0 0.00 0.00 0.00 36 1013.4
20260830213655 100 216 8.0 9.0 0.00 0.00 0.00 36 1013.5
20260830210655 100 240 1.0 2.0 0.00 0.00 0.00 38 1013.8
20260830203653 102 293 2.0 3.0 0.00 0.00 0.00 37 1014.1
20260830200651 102 299 0.0 1.0 0.00 0.00 0.00 39 1014.5
20260830193650 100 120 3.0 3.0 0.00 0.00 0.00 40 1015.0
20260830190650 100 188 4.0 6.0 0.00 0.00 0.00 41 1015.4
20260830183650 99 114 4.0 6.0 0.00 0.00 0.00 41 1015.9
20260830180649 99 129 3.0 6.0 0.00 0.00 0.00 44 1016.2
20260830173647 98 284 1.0 1.0 0.00 0.00 0.00 46 1016.5
20260830170643 98 186 3.0 5.0 0.00 0.00 0.00 48 1017.3
20260830163639 94 191 3.0 5.0 0.00 0.00 0.00 54 1017.5